This is the latest recevied weather packets stored in our database for station/object WB5TZJ. If no packets are shown the sender has not sent any weather packets the latest 10 day(s).
| Time | Temp. | Humidity | Pressure | Rain* | Wind** | Luminosity | Snow |
|---|---|---|---|---|---|---|---|
| 1777044675 | 22.78° C | 44% | 1008.4 hPa | 0 mm | - | - | - |
| 1777044075 | 22.78° C | 45% | 1008.4 hPa | 0 mm | - | - | - |
| 1777043475 | 22.78° C | 45% | 1008.1 hPa | 0 mm | - | - | - |
| 1777042876 | 22.78° C | 46% | 1008.1 hPa | 0 mm | - | - | - |
| 1777042276 | 22.78° C | 48% | 1008.1 hPa | 0 mm | - | - | - |
| 1777041676 | 23.33° C | 52% | 1008.4 hPa | 0 mm | - | - | - |
| 1777041076 | 22.78° C | 51% | 1008.1 hPa | 0 mm | - | - | - |
| 1777040476 | 22.78° C | 48% | 1008.4 hPa | 0 mm | - | - | - |
| 1777039876 | 22.22° C | 45% | 1008.1 hPa | 0 mm | - | - | - |
| 1777039276 | 22.78° C | 44% | 1008.1 hPa | 0 mm | - | - | - |
| 1777038676 | 22.78° C | 45% | 1007.7 hPa | 0 mm | - | - | - |
| 1777038076 | 22.78° C | 45% | 1008.1 hPa | 0 mm | - | - | - |
| 1777037476 | 22.78° C | 49% | 1007.7 hPa | 0 mm | - | - | - |
| 1777036876 | 22.22° C | 48% | 1007.7 hPa | 0 mm | - | - | - |
| 1777036276 | 22.22° C | 44% | 1007.7 hPa | 0 mm | - | - | - |
| 1777035676 | 22.22° C | 46% | 1007.4 hPa | 0 mm | - | - | - |
| 1777035076 | 22.22° C | 47% | 1007.4 hPa | 0 mm | - | - | - |
| 1777034476 | 22.22° C | 44% | 1007.4 hPa | 0 mm | - | - | - |
| 1777033876 | 22.22° C | 46% | 1007.4 hPa | 0 mm | - | - | - |
| 1777033276 | 22.22° C | 44% | 1007.4 hPa | 0 mm | - | - | - |
| 1777032676 | 22.22° C | 46% | 1007.4 hPa | 0 mm | - | - | - |
| 1777032076 | 22.22° C | 43% | 1007.4 hPa | 0 mm | - | - | - |
| 1777031476 | 22.22° C | 45% | 1006.7 hPa | 0 mm | - | - | - |
| 1777030876 | 22.22° C | 47% | 1006.7 hPa | 0 mm | - | - | - |
| 1777030276 | 22.78° C | 44% | 1006.7 hPa | 0 mm | - | - | - |
* Rain latest hour (hover to see other rain measurements)
** Current wind speed in m/s (hover to see current wind gust speed)